| time (UTC) | temp C | wind direction | speed KPH | gust KPH | rain 1hr cm | rain 24hr cm | rain mn cm | humidity % | barometer mb |
| 20260502212730 | 23 | 65 | 3.2 | 8.0 | 0.00 | 0.00 | 0.00 | 32 | 1015.4 |
| 20260502211729 | 23 | 324 | 1.6 | 6.4 | 0.00 | 0.00 | 0.00 | 28 | 1015.4 |
| 20260502211230 | 23 | 47 | 1.6 | 8.0 | 0.00 | 0.00 | 0.00 | 31 | 1015.4 |
| 20260502210729 | 23 | 152 | 1.6 | 8.0 | 0.00 | 0.00 | 0.00 | 31 | 1015.6 |
| 20260502210229 | 22 | 117 | 3.2 | 9.7 | 0.00 | 0.00 | 0.00 | 31 | 1015.7 |
| 20260502205729 | 23 | 308 | 3.2 | 9.7 | 0.00 | 0.00 | 0.00 | 27 | 1015.9 |
| 20260502205229 | 23 | 200 | 1.6 | 6.4 | 0.00 | 0.00 | 0.00 | 28 | 1015.9 |
| 20260502204730 | 23 | 211 | 3.2 | 8.0 | 0.00 | 0.00 | 0.00 | 31 | 1016.0 |
| 20260502204229 | 23 | 211 | 3.2 | 8.0 | 0.00 | 0.00 | 0.00 | 30 | 1016.1 |
| 20260502203729 | 23 | 182 | 1.6 | 6.4 | 0.00 | 0.00 | 0.00 | 31 | 1016.2 |
| 20260502203228 | 23 | 277 | 1.6 | 11.3 | 0.00 | 0.00 | 0.00 | 30 | 1016.2 |
| 20260502202729 | 22 | 327 | 1.6 | 11.3 | 0.00 | 0.00 | 0.00 | 31 | 1016.3 |
| 20260502202229 | 22 | 339 | 1.6 | 4.8 | 0.00 | 0.00 | 0.00 | 35 | 1016.4 |
| 20260502201730 | 23 | 173 | 1.6 | 8.0 | 0.00 | 0.00 | 0.00 | 38 | 1016.4 |
| 20260502201230 | 23 | 39 | 1.6 | 8.0 | 0.00 | 0.00 | 0.00 | 32 | 1016.5 |
| 20260502200729 | 23 | 221 | 1.6 | 11.3 | 0.00 | 0.00 | 0.00 | 32 | 1016.5 |
| 20260502200229 | 22 | 212 | 1.6 | 11.3 | 0.00 | 0.00 | 0.00 | 37 | 1016.5 |
| 20260502195728 | 22 | 78 | 1.6 | 4.8 | 0.00 | 0.00 | 0.00 | 35 | 1016.7 |
| 20260502195229 | 22 | 27 | 1.6 | 4.8 | 0.00 | 0.00 | 0.00 | 35 | 1016.8 |
| 20260502194730 | 22 | 117 | 1.6 | 3.2 | 0.00 | 0.00 | 0.00 | 35 | 1016.8 |
| 20260502194232 | 22 | 317 | 3.2 | 9.7 | 0.00 | 0.00 | 0.00 | 35 | 1016.9 |
| 20260502193729 | 21 | 59 | 4.8 | 9.7 | 0.00 | 0.00 | 0.00 | 35 | 1016.9 |
| 20260502193229 | 21 | 55 | 3.2 | 8.0 | 0.00 | 0.00 | 0.00 | 36 | 1017.1 |
| 20260502192729 | 21 | 55 | 1.6 | 6.4 | 0.00 | 0.00 | 0.00 | 32 | 1017.1 |
| 20260502192230 | 21 | 274 | 1.6 | 6.4 | 0.00 | 0.00 | 0.00 | 34 | 1017.3 |
| 20260502191729 | 21 | 254 | 3.2 | 4.8 | 0.00 | 0.00 | 0.00 | 36 | 1017.3 |
| 20260502190729 | 21 | 272 | 1.6 | 4.8 | 0.00 | 0.00 | 0.00 | 36 | 1017.4 |
| 20260502190229 | 21 | 281 | 1.6 | 4.8 | 0.00 | 0.00 | 0.00 | 37 | 1017.4 |
| 20260502185729 | 21 | 213 | 1.6 | 6.4 | 0.00 | 0.00 | 0.00 | 37 | 1017.5 |
| 20260502183729 | 20 | 321 | 1.6 | 8.0 | 0.00 | 0.00 | 0.00 | 38 | 1017.6 |
| 20260502183230 | 20 | 265 | 1.6 | 8.0 | 0.00 | 0.00 | 0.00 | 38 | 1017.7 |
| 20260502182229 | 20 | 317 | 1.6 | 6.4 | 0.00 | 0.00 | 0.00 | 41 | 1017.7 |
| 20260502181736 | 20 | 350 | 1.6 | 6.4 | 0.00 | 0.00 | 0.00 | 42 | 1017.8 |
| 20260502181233 | 19 | 10 | 3.2 | 6.4 | 0.00 | 0.00 | 0.00 | 42 | 1017.8 |
| 20260502180232 | 18 | 119 | 1.6 | 4.8 | 0.00 | 0.00 | 0.00 | 41 | 1018.0 |
| 20260502170232 | 16 | 290 | 1.6 | 4.8 | 0.00 | 0.00 | 0.00 | 49 | 1018.5 |
| 20260502164234 | 15 | 27 | 0.0 | 3.2 | 0.00 | 0.00 | 0.00 | 52 | 1018.7 |
| 20260502163732 | 15 | 36 | 0.0 | 3.2 | 0.00 | 0.00 | 0.00 | 53 | 1018.6 |
| 20260502163233 | 15 | 33 | 0.0 | 3.2 | 0.00 | 0.00 | 0.00 | 52 | 1018.6 |
| 20260502162732 | 15 | 355 | 1.6 | 4.8 | 0.00 | 0.00 | 0.00 | 57 | 1018.5 |
| 20260502162237 | 14 | 355 | 1.6 | 4.8 | 0.00 | 0.00 | 0.00 | 54 | 1018.5 |
| 20260502161733 | 14 | 94 | 0.0 | 4.8 | 0.00 | 0.00 | 0.00 | 59 | 1018.7 |
| 20260502160732 | 13 | 34 | 0.0 | 3.2 | 0.00 | 0.00 | 0.00 | 63 | 1018.7 |
| 20260502160233 | 13 | 306 | 1.6 | 3.2 | 0.00 | 0.00 | 0.00 | 65 | 1018.7 |
| 20260502152230 | 10 | 73 | 0.0 | 1.6 | 0.00 | 0.00 | 0.00 | 73 | 1018.6 |
| 20260502151729 | 10 | 73 | 0.0 | 1.6 | 0.00 | 0.00 | 0.00 | 73 | 1018.6 |
| 20260502151230 | 10 | 73 | 0.0 | 3.2 | 0.00 | 0.00 | 0.00 | 73 | 1018.6 |
| 20260502150730 | 9 | 73 | 1.6 | 3.2 | 0.00 | 0.00 | 0.00 | 73 | 1018.6 |
| 20260502150228 | 9 | 64 | 0.0 | 3.2 | 0.00 | 0.00 | 0.00 | 75 | 1018.7 |
| 20260502130728 | 5 | 269 | 0.0 | 1.6 | 0.00 | 0.00 | 0.00 | 87 | 1018.1 |
| 20260502130228 | 5 | 269 | 0.0 | 1.6 | 0.00 | 0.00 | 0.00 | 86 | 1018.0 |
| 20260502123723 | 5 | 240 | 0.0 | 0.0 | 0.00 | 0.00 | 0.00 | 87 | 1017.8 |
| 20260502122723 | 5 | 134 | 0.0 | 0.0 | 0.00 | 0.00 | 0.00 | 90 | 1017.8 |
| 20260502122224 | 5 | 133 | 0.0 | 0.0 | 0.00 | 0.00 | 0.00 | 91 | 1017.7 |
| 20260502121722 | 5 | 145 | 0.0 | 0.0 | 0.00 | 0.00 | 0.00 | 89 | 1017.8 |
| 20260502121225 | 5 | 275 | 0.0 | 0.0 | 0.00 | 0.00 | 0.00 | 90 | 1017.7 |
| 20260502120727 | 4 | 275 | 0.0 | 0.0 | 0.00 | 0.00 | 0.00 | 89 | 1017.8 |
| 20260502120226 | 4 | 275 | 0.0 | 0.0 | 0.00 | 0.00 | 0.00 | 89 | 1017.7 |
| 20260502115726 | 5 | 275 | 0.0 | 0.0 | 0.00 | 0.00 | 0.00 | 87 | 1017.7 |
| 20260502115221 | 5 | 275 | 0.0 | 0.0 | 0.00 | 0.00 | 0.00 | 88 | 1017.8 |
| 20260502114722 | 5 | 275 | 0.0 | 0.0 | 0.00 | 0.00 | 0.00 | 87 | 1017.9 |
| 20260502114222 | 5 | 275 | 0.0 | 0.0 | 0.00 | 0.00 | 0.00 | 86 | 1017.9 |
| 20260502113719 | 5 | 275 | 0.0 | 0.0 | 0.00 | 0.00 | 0.00 | 88 | 1017.8 |
| 20260502113219 | 5 | 190 | 0.0 | 0.0 | 0.00 | 0.00 | 0.00 | 85 | 1017.8 |
| 20260502112720 | 5 | 226 | 0.0 | 0.0 | 0.00 | 0.00 | 0.00 | 86 | 1017.8 |
| 20260502112220 | 5 | 226 | 0.0 | 0.0 | 0.00 | 0.00 | 0.00 | 86 | 1017.7 |
| 20260502111718 | 5 | 241 | 0.0 | 1.6 | 0.00 | 0.00 | 0.00 | 84 | 1017.8 |
| 20260502111220 | 6 | 163 | 1.6 | 3.2 | 0.00 | 0.00 | 0.00 | 85 | 1017.8 |
| 20260502110719 | 5 | 103 | 1.6 | 3.2 | 0.00 | 0.00 | 0.00 | 86 | 1017.8 |
| 20260502110219 | 5 | 103 | 0.0 | 1.6 | 0.00 | 0.00 | 0.00 | 84 | 1017.8 |
| 20260502105719 | 5 | 236 | 1.6 | 3.2 | 0.00 | 0.00 | 0.00 | 86 | 1017.8 |
| 20260502105220 | 5 | 279 | 1.6 | 3.2 | 0.00 | 0.00 | 0.00 | 86 | 1017.7 |
| 20260502104719 | 5 | 262 | 0.0 | 1.6 | 0.00 | 0.00 | 0.00 | 85 | 1017.6 |
| 20260502104218 | 6 | 274 | 0.0 | 1.6 | 0.00 | 0.00 | 0.00 | 82 | 1017.5 |
| 20260502103719 | 6 | 137 | 0.0 | 0.0 | 0.00 | 0.00 | 0.00 | 82 | 1017.5 |
| 20260502103220 | 5 | 137 | 0.0 | 1.6 | 0.00 | 0.00 | 0.00 | 82 | 1017.4 |
| 20260502102719 | 6 | 256 | 1.6 | 3.2 | 0.00 | 0.00 | 0.00 | 83 | 1017.3 |
| 20260502101718 | 6 | 212 | 0.0 | 1.6 | 0.00 | 0.00 | 0.00 | 84 | 1017.3 |
| 20260502101219 | 6 | 254 | 0.0 | 0.0 | 0.00 | 0.00 | 0.00 | 82 | 1017.3 |
| 20260502100718 | 6 | 254 | 0.0 | 0.0 | 0.00 | 0.00 | 0.00 | 84 | 1017.4 |
| 20260502100218 | 6 | 252 | 0.0 | 0.0 | 0.00 | 0.00 | 0.00 | 86 | 1017.3 |
| 20260502091210 | 7 | 101 | 0.0 | 0.0 | 0.00 | 0.00 | 0.00 | 80 | 1016.8 |
| 20260502090207 | 7 | 101 | 0.0 | 1.6 | 0.00 | 0.00 | 0.00 | 81 | 1017.1 |
| 20260502071153 | 9 | 112 | 0.0 | 1.6 | 0.00 | 0.00 | 0.00 | 79 | 1016.8 |
| 20260502070147 | 10 | 80 | 0.0 | 1.6 | 0.00 | 0.00 | 0.00 | 79 | 1016.6 |
| 20260502065646 | 10 | 80 | 0.0 | 1.6 | 0.00 | 0.00 | 0.00 | 78 | 1016.6 |
| 20260502065144 | 10 | 80 | 0.0 | 1.6 | 0.00 | 0.00 | 0.00 | 78 | 1016.5 |
| 20260502064142 | 10 | 170 | 0.0 | 0.0 | 0.00 | 0.00 | 0.00 | 77 | 1016.4 |
| 20260502063641 | 10 | 170 | 0.0 | 0.0 | 0.00 | 0.00 | 0.00 | 75 | 1016.5 |
| 20260502063143 | 10 | 170 | 0.0 | 0.0 | 0.00 | 0.00 | 0.00 | 76 | 1016.4 |
| 20260502062639 | 10 | 250 | 0.0 | 0.0 | 0.00 | 0.00 | 0.00 | 71 | 1016.5 |
| 20260502060639 | 10 | 69 | 0.0 | 0.0 | 0.00 | 0.00 | 0.00 | 74 | 1016.3 |
| 20260502060140 | 11 | 69 | 0.0 | 1.6 | 0.00 | 0.00 | 0.00 | 74 | 1016.3 |
| 20260502055638 | 11 | 69 | 0.0 | 1.6 | 0.00 | 0.00 | 0.00 | 72 | 1016.2 |
| 20260502055138 | 11 | 69 | 0.0 | 1.6 | 0.00 | 0.00 | 0.00 | 74 | 1016.2 |
| 20260502054137 | 11 | 109 | 0.0 | 1.6 | 0.00 | 0.00 | 0.00 | 71 | 1016.1 |
| 20260502053635 | 11 | 109 | 0.0 | 1.6 | 0.00 | 0.00 | 0.00 | 68 | 1016.2 |
| 20260502052636 | 12 | 109 | 0.0 | 1.6 | 0.00 | 0.00 | 0.00 | 61 | 1016.0 |
| 20260502052137 | 12 | 223 | 0.0 | 0.0 | 0.00 | 0.00 | 0.00 | 59 | 1016.0 |
| 20260502051635 | 12 | 223 | 0.0 | 0.0 | 0.00 | 0.00 | 0.00 | 61 | 1016.0 |
| 20260502051134 | 12 | 248 | 0.0 | 1.6 | 0.00 | 0.00 | 0.00 | 58 | 1015.9 |
| 20260502050134 | 13 | 267 | 0.0 | 1.6 | 0.00 | 0.00 | 0.00 | 62 | 1016.0 |
| 20260502045133 | 13 | 267 | 0.0 | 1.6 | 0.00 | 0.00 | 0.00 | 56 | 1015.7 |
| 20260502044634 | 13 | 267 | 0.0 | 1.6 | 0.00 | 0.00 | 0.00 | 55 | 1015.9 |
| 20260502043634 | 13 | 267 | 1.6 | 3.2 | 0.00 | 0.00 | 0.00 | 60 | 1015.9 |
| 20260502043134 | 13 | 55 | 1.6 | 3.2 | 0.00 | 0.00 | 0.00 | 61 | 1015.6 |
| 20260502042634 | 14 | 54 | 0.0 | 3.2 | 0.00 | 0.00 | 0.00 | 61 | 1015.7 |
| 20260502042132 | 14 | 82 | 0.0 | 3.2 | 0.00 | 0.00 | 0.00 | 50 | 1015.6 |
| 20260502041632 | 15 | 130 | 0.0 | 1.6 | 0.00 | 0.00 | 0.00 | 47 | 1015.5 |
| 20260502040632 | 15 | 159 | 0.0 | 3.2 | 0.00 | 0.00 | 0.00 | 46 | 1015.5 |
| 20260502040131 | 15 | 245 | 0.0 | 1.6 | 0.00 | 0.00 | 0.00 | 46 | 1015.4 |
| 20260502035629 | 15 | 203 | 0.0 | 1.6 | 0.00 | 0.00 | 0.00 | 44 | 1015.4 |
| 20260502035129 | 15 | 224 | 0.0 | 1.6 | 0.00 | 0.00 | 0.00 | 44 | 1015.4 |
| 20260502034631 | 15 | 210 | 0.0 | 1.6 | 0.00 | 0.00 | 0.00 | 45 | 1015.4 |
| 20260502034129 | 15 | 227 | 0.0 | 3.2 | 0.00 | 0.00 | 0.00 | 46 | 1015.3 |
| 20260502033631 | 16 | 241 | 1.6 | 3.2 | 0.00 | 0.00 | 0.00 | 46 | 1015.3 |
| 20260502032629 | 16 | 115 | 0.0 | 1.6 | 0.00 | 0.00 | 0.00 | 43 | 1015.1 |
| 20260502032129 | 16 | 115 | 0.0 | 1.6 | 0.00 | 0.00 | 0.00 | 43 | 1015.1 |
| 20260502031129 | 16 | 176 | 0.0 | 3.2 | 0.00 | 0.00 | 0.00 | 47 | 1015.0 |
| 20260502030132 | 16 | 178 | 0.0 | 1.6 | 0.00 | 0.00 | 0.00 | 44 | 1014.9 |
| 20260502025130 | 17 | 96 | 0.0 | 1.6 | 0.00 | 0.00 | 0.00 | 42 | 1014.8 |
| 20260502024129 | 17 | 169 | 0.0 | 4.8 | 0.00 | 0.00 | 0.00 | 45 | 1014.8 |
| 20260502023629 | 18 | 204 | 0.0 | 3.2 | 0.00 | 0.00 | 0.00 | 41 | 1014.6 |
| 20260502023130 | 18 | 165 | 1.6 | 4.8 | 0.00 | 0.00 | 0.00 | 40 | 1014.9 |
| 20260502022629 | 18 | 140 | 1.6 | 4.8 | 0.00 | 0.00 | 0.00 | 37 | 1014.8 |
| 20260502022130 | 18 | 136 | 1.6 | 4.8 | 0.00 | 0.00 | 0.00 | 36 | 1014.6 |
| 20260502021629 | 19 | 211 | 0.0 | 1.6 | 0.00 | 0.00 | 0.00 | 37 | 1014.8 |
| 20260502021130 | 19 | 215 | 0.0 | 1.6 | 0.00 | 0.00 | 0.00 | 37 | 1014.6 |
| 20260502020629 | 19 | 153 | 0.0 | 0.0 | 0.00 | 0.00 | 0.00 | 37 | 1014.6 |
| 20260502020129 | 20 | 153 | 0.0 | 0.0 | 0.00 | 0.00 | 0.00 | 37 | 1014.6 |
| 20260502015629 | 20 | 153 | 0.0 | 0.0 | 0.00 | 0.00 | 0.00 | 36 | 1014.6 |
| 20260502014629 | 20 | 215 | 1.6 | 3.2 | 0.00 | 0.00 | 0.00 | 38 | 1014.6 |
| 20260502014129 | 20 | 132 | 1.6 | 6.4 | 0.00 | 0.00 | 0.00 | 35 | 1014.6 |
| 20260502013130 | 21 | 96 | 1.6 | 6.4 | 0.00 | 0.00 | 0.00 | 35 | 1014.8 |
| 20260502012628 | 21 | 10 | 0.0 | 3.2 | 0.00 | 0.00 | 0.00 | 35 | 1014.8 |
| 20260502012132 | 21 | 225 | 0.0 | 3.2 | 0.00 | 0.00 | 0.00 | 34 | 1014.8 |
| 20260502011627 | 21 | 158 | 1.6 | 8.0 | 0.00 | 0.00 | 0.00 | 35 | 1014.8 |
| 20260502011120 | 21 | 221 | 3.2 | 12.9 | 0.00 | 0.00 | 0.00 | 33 | 1014.9 |
| 20260502010615 | 21 | 209 | 4.8 | 12.9 | 0.00 | 0.00 | 0.00 | 33 | 1014.9 |
| 20260502005616 | 22 | 204 | 3.2 | 11.3 | 0.00 | 0.00 | 0.00 | 32 | 1014.9 |
| 20260502005115 | 22 | 252 | 3.2 | 11.3 | 0.00 | 0.00 | 0.00 | 33 | 1015.0 |
| 20260502004613 | 22 | 180 | 3.2 | 8.0 | 0.00 | 0.00 | 0.00 | 33 | 1014.9 |
| 20260502004111 | 21 | 277 | 3.2 | 11.3 | 0.00 | 0.00 | 0.00 | 33 | 1014.9 |
| 20260502003112 | 21 | 257 | 4.8 | 11.3 | 0.00 | 0.00 | 0.00 | 35 | 1014.8 |
| 20260502002611 | 21 | 163 | 3.2 | 11.3 | 0.00 | 0.00 | 0.00 | 34 | 1014.8 |
| 20260502002110 | 21 | 213 | 3.2 | 12.9 | 0.00 | 0.00 | 0.00 | 33 | 1014.8 |
| 20260502001610 | 22 | 182 | 3.2 | 12.9 | 0.00 | 0.00 | 0.00 | 33 | 1014.9 |
| 20260502001109 | 21 | 240 | 4.8 | 11.3 | 0.00 | 0.00 | 0.00 | 34 | 1014.9 |
| 20260502000610 | 22 | 209 | 4.8 | 16.1 | 0.00 | 0.00 | 0.00 | 34 | 1014.9 |
| 20260502000108 | 22 | 239 | 4.8 | 16.1 | 0.00 | 0.00 | 0.00 | 33 | 1014.9 |
| 20260501235607 | 22 | 232 | 4.8 | 14.5 | 0.00 | 0.00 | 0.00 | 33 | 1014.8 |
| 20260501235107 | 22 | 171 | 4.8 | 14.5 | 0.00 | 0.00 | 0.00 | 34 | 1014.9 |
| 20260501234607 | 22 | 250 | 3.2 | 12.9 | 0.00 | 0.00 | 0.00 | 33 | 1015.0 |
| 20260501234104 | 22 | 192 | 3.2 | 12.9 | 0.00 | 0.00 | 0.00 | 32 | 1015.0 |
| 20260501233602 | 23 | 210 | 4.8 | 12.9 | 0.00 | 0.00 | 0.00 | 31 | 1015.0 |
| 20260501233059 | 23 | 199 | 3.2 | 11.3 | 0.00 | 0.00 | 0.00 | 31 | 1015.1 |
| 20260501232553 | 23 | 177 | 3.2 | 11.3 | 0.00 | 0.00 | 0.00 | 32 | 1015.1 |
| 20260501231544 | 23 | 221 | 3.2 | 9.7 | 0.00 | 0.00 | 0.00 | 31 | 1015.3 |
| 20260501231044 | 23 | 208 | 3.2 | 11.3 | 0.00 | 0.00 | 0.00 | 30 | 1015.3 |
| 20260501230041 | 23 | 159 | 3.2 | 12.9 | 0.00 | 0.00 | 0.00 | 30 | 1015.4 |
| 20260501225541 | 23 | 202 | 3.2 | 12.9 | 0.00 | 0.00 | 0.00 | 29 | 1015.4 |
| 20260501225041 | 23 | 184 | 4.8 | 11.3 | 0.00 | 0.00 | 0.00 | 30 | 1015.5 |
| 20260501224541 | 23 | 204 | 3.2 | 11.3 | 0.00 | 0.00 | 0.00 | 31 | 1015.6 |
| 20260501224041 | 23 | 206 | 1.6 | 9.7 | 0.00 | 0.00 | 0.00 | 30 | 1015.7 |
| 20260501223540 | 23 | 147 | 3.2 | 9.7 | 0.00 | 0.00 | 0.00 | 30 | 1015.7 |
| 20260501223037 | 22 | 224 | 3.2 | 12.9 | 0.00 | 0.00 | 0.00 | 31 | 1015.9 |
| 20260501222536 | 22 | 35 | 4.8 | 12.9 | 0.00 | 0.00 | 0.00 | 30 | 1016.0 |
| 20260501222038 | 22 | 94 | 4.8 | 14.5 | 0.00 | 0.00 | 0.00 | 30 | 1016.0 |
| 20260501221539 | 22 | 91 | 4.8 | 14.5 | 0.00 | 0.00 | 0.00 | 28 | 1016.1 |
| 20260501221039 | 22 | 44 | 4.8 | 12.9 | 0.00 | 0.00 | 0.00 | 29 | 1016.1 |
| 20260501220537 | 22 | 144 | 3.2 | 12.9 | 0.00 | 0.00 | 0.00 | 29 | 1016.1 |
| 20260501220038 | 22 | 258 | 3.2 | 9.7 | 0.00 | 0.00 | 0.00 | 29 | 1016.2 |
| 20260501215537 | 22 | 115 | 4.8 | 14.5 | 0.00 | 0.00 | 0.00 | 30 | 1016.3 |
| 20260501215037 | 22 | 215 | 4.8 | 14.5 | 0.00 | 0.00 | 0.00 | 30 | 1016.5 |
| 20260501214532 | 22 | 148 | 4.8 | 14.5 | 0.00 | 0.00 | 0.00 | 30 | 1016.4 |
| 20260501214025 | 22 | 198 | 4.8 | 17.7 | 0.00 | 0.00 | 0.00 | 30 | 1016.5 |